Terminal Aerodrome Forecast
Issued by NWS

Home | Current Version | Previous Version | Graphics & Text | Print | Product List | Glossary On
Versions: 1 2 3 4 5 6 7 8 9 10 11 12 13 14 15 16 17 18 19 20 21 22 23 24 25 26 27
000
FTUS43 KBIS 140159 AAA
TAFJMS
TAF AMD
KJMS 140159Z 1402/1424 05011KT P6SM FEW035 SCT060
     FM140400 04004KT P6SM SCT045
     FM140600 36004KT 4SM BR SCT005 BKN035
     FM140900 VRB03KT 2SM BR BKN004
     FM141400 05007KT P6SM SCT006 BKN030
     FM141800 09007KT P6SM SCT045=

USA.gov is the U.S. government's official web portal to all federal, state and local government web resources and services.